Regional Weather Roundup
Issued by NWS

Home | Current Version | Previous Version | Graphics & Text | Print | Product List | Glossary On
Versions: 1 2 3 4 5 6 7 8 9 10 11 12 13 14 15 16 17 18 19 20 21 22 23 24 25 26 27 28 29 30 31 32 33 34 35 36 37 38 39 40 41 42 43 44 45 46 47 48 49 50
000
ASUS43 KTOP 042108
RWRKS

WEATHER ROUNDUP FOR KANSAS
NATIONAL WEATHER SERVICE GOODLAND KS
400 PM CDT WED MAY 04 2016

NOTE:  "FAIR" INDICATES FEW OR NO CLOUDS BELOW 12,000 FEET WITH NO
SIGNIFICANT WEATHER AND/OR OBSTRUCTIONS TO VISIBILITY.

KSZ001>006-013>018-027>032-041>047-042200-
NORTHWEST KANSAS

CITY           SKY/WX    TMP DP  RH WIND       PRES   REMARKS
GOODLAND       SUNNY     75  39  27 VRB7      30.13F
HAYS           SUNNY     73  43  33 N13       30.09F
HILL CITY      SUNNY     77  40  26 N14G20    30.10F
RUSSELL        SUNNY     73  39  29 N13       30.06F
$$

KSZ061>065-074>080-084>089-042200-
SOUTHWEST KANSAS

CITY           SKY/WX    TMP DP  RH WIND       PRES   REMARKS
DODGE CITY     SUNNY     75  43  31 N13       30.10F
ELKHART          N/A     76  42  29 N3          N/A
GARDEN CITY    SUNNY     76  42  29 N12       30.11F
GREAT BEND     SUNNY     72  45  37 N13       30.08F
LIBERAL        SUNNY     77  43  29 N7        30.13F
PRATT          SUNNY     72  39  30 N12G20    30.07F
$$

KSZ066>073-081>083-090>101-042200-
SOUTHEAST KANSAS

CITY           SKY/WX    TMP DP  RH WIND       PRES   REMARKS
CHANUTE        SUNNY     73  36  25 NW13      29.99F
COFFEYVILLE    SUNNY     74  40  29 N12G25    29.98F
HUTCHINSON     SUNNY     75  36  24 N13G29    30.05F
MEDICINE LODGE   N/A     77  42  28 N13G23    30.05F
NEWTON         SUNNY     72  34  25 N17G25    30.06F
PARSONS        SUNNY     74  40  29 N15G22    29.99F
WICHITA INTL   SUNNY     74  31  20 NW16G29   30.03F
WICHITA JABRA  SUNNY     74  35  24 N20       30.03F
WICHITA MCCONL SUNNY     74  35  24 N15G22    30.03S
WINFIELD       SUNNY     74  37  26 N13       30.36R
$$

KSZ007>012-019>026-033>040-048>060-102>105-042200-
NORTHEAST KANSAS

CITY           SKY/WX    TMP DP  RH WIND       PRES   REMARKS
CONCORDIA      SUNNY     71  33  24 N12G21    30.06F
EMPORIA        SUNNY     71  35  26 NW14G24   30.01F
LAWRENCE       SUNNY     71  39  31 N16       29.99F
MANHATTAN      SUNNY     72  34  24 N8G22     30.03F
MARYSVILLE     SUNNY     68  37  32 N12G21    30.03F
OLATHE IND     SUNNY     69  39  33 NW16G28   29.99F
OLATHE EXE     SUNNY     69  36  29 N17       29.98F
SALINA         SUNNY     74  37  26 N15G22    30.05F
TOPEKA BILLARD SUNNY     71  39  31 N16G22    30.00F
TOPEKA FORBES  SUNNY     72  38  29 N16G23    30.00F
$$



USA.gov is the U.S. government's official web portal to all federal, state and local government web resources and services.